W5COG Weather Reports


time (UTC)temp
F
wind
direction
speed
knots
gust
knots
rain 1hr
in
rain 24hr
in
rain mn
in
humidity
%
barometer
mb
20260510164029 60 31 2.6 6.1 0.00 0.00 0.00 73 1019.7
20260510163529 61 54 1.7 6.1 0.00 0.00 0.00 72 1019.5
20260510163029 61 11 0.9 4.3 0.00 0.00 0.00 71 1019.1
20260510162529 61 35 1.7 5.2 0.00 0.00 0.00 69 1018.7
20260510162029 61 18 2.6 7.8 0.00 0.00 0.00 70 1018.6
20260510161529 62 29 1.7 6.1 0.00 0.00 0.00 71 1018.8
20260510161029 62 332 3.5 7.0 0.00 0.00 0.00 71 1018.7
20260510160529 62 357 1.7 6.1 0.00 0.00 0.00 72 1018.3
20260510160029 62 357 1.7 4.3 0.00 0.00 0.00 73 1018.0
20260510155529 62 5 0.9 7.0 0.00 0.00 0.00 74 1017.9
20260510155029 62 14 1.7 5.2 0.00 0.00 0.00 75 1017.8
20260510154529 62 14 0.9 5.2 0.00 0.00 0.00 77 1017.7
20260510154029 62 353 2.6 7.0 0.00 0.00 0.00 76 1017.6
20260510153529 62 15 1.7 6.1 0.00 0.00 0.00 77 1017.6
20260510153029 62 342 1.7 5.2 0.00 0.00 0.00 77 1017.6
20260510152529 61 359 1.7 4.3 0.00 0.00 0.00 78 1017.4
20260510150029 61 329 1.7 6.1 0.00 0.00 0.00 81 1017.2
20260510145529 61 316 2.6 7.0 0.00 0.00 0.00 81 1017.1
20260510145029 60 326 1.7 5.2 0.00 0.00 0.00 81 1016.8
20260510144529 60 359 1.7 7.0 0.00 0.00 0.00 82 1016.4
20260510143029 60 19 0.9 4.3 0.00 0.00 0.00 83 1015.8
20260510142529 60 34 1.7 4.3 0.00 0.00 0.00 84 1016.0
20260510142029 60 1 1.7 5.2 0.00 0.00 0.00 84 1016.4
20260510141529 60 320 1.7 6.1 0.00 0.00 0.00 85 1016.7
20260510141029 60 331 0.9 2.6 0.00 0.00 0.00 85 1016.8
20260510140529 60 44 1.7 5.2 0.00 0.00 0.00 83 1016.4
20260510140029 60 48 1.7 4.3 0.00 0.00 0.00 84 1016.7
20260510135529 60 346 0.0 3.5 0.00 0.00 0.00 85 1017.0
20260510135029 60 329 0.0 2.6 0.00 0.00 0.00 84 1016.9
20260510134529 60 30 0.9 4.3 0.00 0.00 0.00 84 1016.8
20260510134029 60 46 0.9 5.2 0.00 0.00 0.00 84 1016.7
20260510133529 61 305 0.9 3.5 0.00 0.00 0.00 83 1016.9
20260510133029 61 310 2.6 6.1 0.00 0.00 0.00 82 1016.8
20260510132529 61 332 1.7 5.2 0.00 0.00 0.00 81 1016.7
20260510132029 60 312 0.9 3.5 0.00 0.00 0.00 82 1017.0
20260510131529 60 291 2.6 6.1 0.00 0.00 0.00 84 1017.3
20260510131029 60 302 0.9 2.6 0.00 0.00 0.00 85 1017.2
20260510130531 60 300 0.9 1.7 0.00 0.00 0.00 85 1016.9
20260510130029 60 275 0.0 0.9 0.00 0.00 0.00 85 1016.6
20260510125529 60 237 0.0 0.9 0.00 0.00 0.00 85 1016.6
20260510125029 60 231 0.0 2.6 0.00 0.00 0.00 86 1016.6
20260510124529 60 154 0.0 0.9 0.00 0.00 0.00 85 1016.6
20260510124029 60 282 0.0 0.9 0.00 0.00 0.00 85 1016.5
20260510123529 60 277 0.0 1.7 0.00 0.00 0.00 86 1016.2
20260510123029 60 238 0.0 2.6 0.00 0.00 0.00 87 1016.0
20260510122529 60 229 0.0 2.6 0.00 0.00 0.00 86 1016.0
20260510122029 60 251 0.0 1.7 0.00 0.00 0.00 85 1015.8
20260510121529 60 246 0.0 0.0 0.00 0.00 0.00 84 1015.4
20260510121029 60 263 0.0 0.0 0.00 0.00 0.00 82 1015.0
20260510120529 60 249 0.0 0.9 0.00 0.00 0.00 83 1014.9
20260510120029 60 248 0.0 0.9 0.00 0.00 0.00 82 1014.8
20260510115529 60 290 0.0 0.0 0.00 0.00 0.00 82 1014.6
20260510115029 59 326 0.0 0.9 0.00 0.00 0.00 84 1014.5
20260510114529 59 65 0.0 1.7 0.00 0.00 0.00 85 1014.3
20260510114029 59 176 0.0 0.9 0.00 0.00 0.00 84 1014.2
20260510113529 59 191 0.0 0.0 0.00 0.00 0.00 84 1013.9
20260510113029 59 239 0.0 0.9 0.00 0.00 0.00 84 1013.8
20260510112529 59 312 0.0 0.9 0.00 0.00 0.00 85 1013.8
20260510112029 59 84 0.0 0.0 0.00 0.00 0.00 85 1013.6
20260510111529 59 63 0.0 0.9 0.00 0.00 0.00 85 1013.4
20260510111029 60 40 0.0 0.9 0.00 0.00 0.00 83 1013.4
20260510105529 60 311 0.0 0.0 0.00 0.00 0.00 83 1013.3
20260510105029 60 345 0.0 0.9 0.00 0.00 0.00 83 1013.2
20260510104529 60 58 0.0 0.9 0.00 0.00 0.00 84 1012.8
20260510104029 60 77 0.0 0.9 0.00 0.00 0.00 84 1012.7
20260510103529 60 92 0.9 1.7 0.00 0.00 0.00 84 1012.7
20260510103029 60 51 0.9 1.7 0.00 0.00 0.00 85 1012.7
20260510102529 60 78 0.9 3.5 0.00 0.00 0.00 84 1012.7
20260510102029 61 75 0.9 2.6 0.00 0.00 0.00 84 1012.8
20260510101529 61 75 0.0 0.9 0.00 0.00 0.00 84 1012.8
20260510101029 61 90 0.0 1.7 0.00 0.00 0.00 83 1012.7
20260510095529 61 78 0.9 2.6 0.00 0.00 0.00 81 1012.4
20260510095029 62 83 0.9 1.7 0.00 0.00 0.00 80 1012.3
20260510094532 62 63 0.0 0.9 0.00 0.00 0.00 79 1012.3
20260510094029 62 56 0.0 2.6 0.00 0.00 0.00 78 1012.3
20260510093529 62 97 0.9 1.7 0.00 0.00 0.00 77 1012.3
20260510093029 62 356 0.0 1.7 0.00 0.00 0.00 76 1012.3
20260510092529 62 345 0.0 0.0 0.00 0.00 0.00 76 1012.3
20260510092029 62 19 0.0 0.0 0.00 0.00 0.00 76 1012.1
20260510091529 62 249 0.0 0.0 0.00 0.00 0.00 76 1012.1
20260510091029 62 233 0.0 0.0 0.00 0.00 0.00 76 1011.9
20260510090529 63 64 0.0 0.9 0.00 0.00 0.00 76 1011.9
20260510090029 63 77 0.0 0.9 0.00 0.00 0.00 76 1011.9
20260510085529 63 323 0.0 0.9 0.00 0.00 0.00 75 1011.9
20260510085029 63 319 0.0 0.0 0.00 0.00 0.00 73 1011.8
20260510084529 63 311 0.0 0.0 0.00 0.00 0.00 73 1011.6
20260510084029 63 296 0.0 0.9 0.00 0.00 0.00 73 1011.5
20260510083529 63 323 0.0 0.9 0.00 0.00 0.00 72 1011.3
20260510083029 63 352 0.0 0.9 0.00 0.00 0.00 71 1011.2
20260510082529 64 39 0.0 0.9 0.00 0.00 0.00 71 1011.0
20260510082029 64 255 0.0 0.9 0.00 0.00 0.00 70 1010.8
20260510081529 64 65 0.9 3.5 0.00 0.00 0.00 69 1010.7
20260510081029 64 58 0.9 2.6 0.00 0.00 0.00 67 1010.5
20260510080529 65 275 0.0 0.9 0.00 0.00 0.00 66 1010.6
20260510075029 64 334 0.0 1.7 0.00 0.00 0.00 69 1010.6
20260510074529 65 329 1.7 3.5 0.00 0.00 0.00 69 1010.7
20260510074029 65 357 1.7 7.0 0.00 0.00 0.00 68 1010.7
20260510073529 65 330 1.7 4.3 0.00 0.00 0.00 66 1010.6
20260510073029 66 21 0.9 1.7 0.00 0.00 0.00 64 1010.4
20260510072529 66 322 2.6 6.1 0.00 0.00 0.00 60 1010.2
20260510072029 66 232 4.3 10.4 0.00 0.00 0.00 59 1009.6
20260510071529 66 137 4.3 9.6 0.00 0.00 0.00 60 1009.0
20260510071029 66 153 3.5 7.0 0.00 0.00 0.00 62 1009.2
20260510070529 66 159 4.3 7.8 0.00 0.00 0.00 61 1008.9
20260510070029 66 153 3.5 8.7 0.00 0.00 0.00 61 1010.0
20260510065529 67 173 4.3 8.7 0.00 0.00 0.00 60 1011.2
20260510065029 66 197 2.6 6.1 0.00 0.00 0.00 61 1011.2
20260510064529 66 211 1.7 3.5 0.00 0.00 0.00 63 1010.8
20260510064029 66 204 0.9 5.2 0.00 0.00 0.00 61 1010.7
20260510063529 66 185 5.2 9.6 0.00 0.00 0.00 62 1010.0
20260510063029 66 175 4.3 9.6 0.00 0.00 0.00 61 1009.8
20260510062529 66 177 7.0 12.2 0.00 0.00 0.00 62 1010.1
20260510062029 66 184 7.8 13.0 0.00 0.00 0.00 62 1011.2
20260510061529 67 202 7.0 13.9 0.00 0.00 0.00 61 1012.6
20260510061029 67 207 3.5 7.8 0.00 0.00 0.00 61 1013.6
20260510060529 67 206 3.5 7.0 0.00 0.00 0.00 61 1014.0
20260510055029 68 272 0.9 2.6 0.00 0.00 0.00 59 1013.5
20260510054529 69 259 0.9 1.7 0.00 0.00 0.00 55 1013.4
20260510054029 68 135 0.0 1.7 0.00 0.00 0.00 56 1013.3
20260510053529 68 298 0.9 3.5 0.00 0.00 0.00 58 1013.3
20260510052529 67 317 0.9 6.1 0.00 0.00 0.00 67 1013.2
20260510052029 67 55 1.7 2.6 0.00 0.00 0.00 67 1013.1
20260510051529 68 79 1.7 2.6 0.00 0.00 0.00 65 1013.3
20260510051029 68 49 0.9 1.7 0.00 0.00 0.00 61 1013.5
20260510050529 68 74 0.0 1.7 0.00 0.00 0.00 60 1013.5
20260510050029 68 352 0.9 3.5 0.00 0.00 0.00 60 1013.5
20260510045529 68 337 0.0 1.7 0.00 0.00 0.00 61 1013.6
20260510045029 67 303 1.7 3.5 0.00 0.00 0.00 62 1013.5
20260510044529 67 290 1.7 6.1 0.00 0.00 0.00 64 1013.5
20260510044029 66 295 1.7 3.5 0.00 0.00 0.00 67 1013.3
20260510043529 66 294 0.9 2.6 0.00 0.00 0.00 66 1013.2
20260510043029 66 292 1.7 3.5 0.00 0.00 0.00 64 1013.1
20260510042529 67 310 0.9 2.6 0.00 0.00 0.00 62 1012.7
20260510042029 67 344 0.0 0.0 0.00 0.00 0.00 62 1012.3
20260510041529 67 94 0.0 1.7 0.00 0.00 0.00 60 1012.0
20260510041029 67 76 0.9 2.6 0.00 0.00 0.00 59 1011.7
20260510040529 67 66 0.9 2.6 0.00 0.00 0.00 57 1011.5
20260510040029 67 94 0.9 1.7 0.00 0.00 0.00 58 1011.4
20260510035529 67 104 0.9 1.7 0.00 0.00 0.00 58 1011.3
20260510035029 67 105 1.7 2.6 0.00 0.00 0.00 59 1011.2
20260510034529 67 110 1.7 2.6 0.00 0.00 0.00 60 1011.2
20260510034029 67 104 1.7 2.6 0.00 0.00 0.00 61 1011.1
20260510033529 67 96 2.6 4.3 0.00 0.00 0.00 61 1011.0
20260510033029 67 91 2.6 3.5 0.00 0.00 0.00 62 1011.0
20260510032529 67 96 2.6 3.5 0.00 0.00 0.00 64 1011.1
20260510032029 67 93 1.7 2.6 0.00 0.00 0.00 66 1011.1
20260510031529 67 85 0.9 1.7 0.00 0.00 0.00 68 1011.2
20260510031029 67 60 0.0 0.9 0.00 0.00 0.00 68 1011.2
20260510030529 67 82 0.9 1.7 0.00 0.00 0.00 66 1011.1
20260510030029 67 84 0.9 1.7 0.00 0.00 0.00 64 1011.1
20260510025529 67 81 0.9 1.7 0.00 0.00 0.00 63 1011.1
20260510025029 67 183 0.0 0.0 0.00 0.00 0.00 61 1011.2
20260510024529 67 184 0.0 0.0 0.00 0.00 0.00 61 1011.1
20260510024029 67 184 0.0 0.0 0.00 0.00 0.00 61 1010.9
20260510023529 67 239 0.0 0.0 0.00 0.00 0.00 61 1010.7
20260510023029 68 328 0.0 0.0 0.00 0.00 0.00 61 1010.5
20260510022529 68 328 0.0 0.0 0.00 0.00 0.00 60 1010.3
20260510022029 68 345 0.0 0.0 0.00 0.00 0.00 58 1010.1
20260510021529 68 47 0.0 0.0 0.00 0.00 0.00 56 1009.9
20260510021029 68 85 0.0 0.0 0.00 0.00 0.00 55 1009.6
20260510020529 69 86 0.0 0.0 0.00 0.00 0.00 55 1009.4
20260510015029 70 103 0.0 2.6 0.00 0.00 0.00 54 1009.1
20260510014529 70 121 0.0 0.0 0.00 0.00 0.00 53 1009.1
20260510014029 71 119 0.0 0.9 0.00 0.00 0.00 52 1009.1
20260510013529 71 128 0.0 0.9 0.00 0.00 0.00 51 1008.9
20260510013029 71 112 0.0 0.9 0.00 0.00 0.00 50 1008.8
20260510012529 72 126 0.0 0.9 0.00 0.00 0.00 50 1008.7
20260510012029 72 126 0.0 0.0 0.00 0.00 0.00 50 1008.6
20260510011529 73 123 0.0 0.0 0.00 0.00 0.00 49 1008.5
20260510011029 73 132 0.0 0.0 0.00 0.00 0.00 48 1008.5
20260510010529 74 124 0.0 0.9 0.00 0.00 0.00 47 1008.4
20260510010029 74 116 0.0 0.9 0.00 0.00 0.00 47 1008.4
20260510005530 75 117 0.0 0.9 0.00 0.00 0.00 46 1008.4
20260510005029 75 129 0.0 2.6 0.00 0.00 0.00 45 1008.4
20260510004529 75 141 0.0 3.5 0.00 0.00 0.00 45 1008.3
20260510004029 76 126 0.0 1.7 0.00 0.00 0.00 44 1008.3
20260510003529 76 119 0.9 2.6 0.00 0.00 0.00 43 1008.3
20260510003029 76 108 0.0 2.6 0.00 0.00 0.00 42 1008.2
20260510002529 76 137 0.9 1.7 0.00 0.00 0.00 41 1008.2
20260510002029 77 144 0.0 1.7 0.00 0.00 0.00 40 1008.2
20260510001529 77 143 0.9 2.6 0.00 0.00 0.00 38 1008.2
20260510001029 77 142 0.9 3.5 0.00 0.00 0.00 37 1008.2
20260510000529 78 127 0.9 3.5 0.00 0.00 0.00 36 1008.3
20260510000029 78 127 0.9 3.5 0.00 0.01 0.00 35 1008.3
20260509235529 78 149 1.7 3.5 0.00 0.01 0.00 34 1008.3
20260509235029 79 132 2.6 7.0 0.00 0.01 0.00 33 1008.3
20260509234529 79 117 1.7 5.2 0.00 0.03 0.00 36 1008.3
20260509234029 79 145 2.6 4.3 0.00 0.06 0.00 35 1008.3
20260509233529 79 130 2.6 5.2 0.00 0.15 0.00 35 1008.3
20260509233029 79 125 1.7 7.0 0.00 0.15 0.00 34 1008.4
20260509232529 80 123 2.6 7.0 0.00 0.15 0.00 33 1008.4
20260509232029 80 119 3.5 6.1 0.00 0.15 0.00 32 1008.5
20260509231529 80 135 2.6 7.0 0.00 0.15 0.00 32 1008.4
20260509231029 80 140 2.6 7.0 0.00 0.15 0.00 33 1008.4
20260509230529 80 137 1.7 3.5 0.00 0.15 0.00 33 1008.4
20260509230029 81 144 2.6 6.1 0.00 0.15 0.00 32 1008.5
20260509225529 81 129 2.6 7.8 0.00 0.15 0.00 32 1008.5
20260509225029 81 113 3.5 7.0 0.00 0.15 0.00 31 1008.5
20260509224529 81 149 2.6 4.3 0.00 0.15 0.00 30 1008.5
20260509224029 81 91 3.5 7.8 0.00 0.15 0.00 30 1008.5
20260509223529 81 118 2.6 5.2 0.00 0.15 0.00 30 1008.6
20260509223029 81 118 2.6 6.1 0.00 0.15 0.00 28 1008.6
20260509222529 81 108 3.5 7.0 0.00 0.15 0.00 27 1008.5
20260509222029 82 101 4.3 7.0 0.00 0.15 0.00 28 1008.5
20260509221529 82 132 2.6 6.1 0.00 0.15 0.00 30 1008.7
20260509221029 82 135 2.6 7.0 0.00 0.15 0.00 30 1008.8
20260509220529 82 140 2.6 7.0 0.00 0.15 0.00 31 1008.7
20260509220029 82 124 2.6 6.1 0.00 0.15 0.00 30 1008.6
20260509215529 83 105 2.6 7.0 0.00 0.15 0.00 30 1008.6
20260509215029 83 120 2.6 6.1 0.00 0.15 0.00 29 1008.7
20260509214529 83 131 2.6 5.2 0.00 0.15 0.00 27 1008.8
20260509214029 83 111 3.5 7.0 0.00 0.15 0.00 28 1008.8
20260509213529 83 128 2.6 4.3 0.00 0.15 0.00 29 1008.8
20260509213029 83 148 2.6 5.2 0.00 0.15 0.00 30 1008.8
20260509212529 82 112 2.6 7.0 0.00 0.15 0.00 29 1008.9
20260509212029 82 99 3.5 7.0 0.00 0.15 0.00 30 1009.0
20260509211529 82 114 3.5 7.0 0.00 0.15 0.00 30 1009.1
20260509211029 83 113 3.5 6.1 0.00 0.15 0.00 30 1009.2
20260509210529 83 109 2.6 7.8 0.00 0.15 0.00 31 1009.2
20260509210029 83 95 3.5 7.0 0.00 0.15 0.00 30 1009.3
20260509205529 83 104 2.6 5.2 0.00 0.15 0.00 28 1009.4
20260509205029 83 121 2.6 4.3 0.00 0.15 0.00 26 1009.6
20260509204529 83 91 3.5 7.0 0.00 0.15 0.00 26 1009.7
20260509204029 83 106 1.7 7.0 0.00 0.15 0.00 27 1009.7
20260509203529 83 89 4.3 7.8 0.00 0.15 0.00 25 1009.8
20260509203029 83 115 2.6 7.0 0.00 0.15 0.00 25 1009.8
20260509202529 84 119 2.6 4.3 0.00 0.15 0.00 26 1009.9
20260509202029 83 115 1.7 4.3 0.00 0.15 0.00 28 1009.8
20260509201529 84 72 3.5 6.1 0.00 0.15 0.00 29 1009.8
20260509201029 84 119 1.7 3.5 0.00 0.15 0.00 31 1009.9
20260509200529 83 153 0.9 3.5 0.00 0.15 0.00 31 1009.9
20260509200029 83 165 1.7 3.5 0.00 0.15 0.00 28 1009.9
20260509195529 83 104 2.6 6.1 0.00 0.15 0.00 28 1009.9
20260509195029 83 147 1.7 4.3 0.00 0.15 0.00 29 1010.0
20260509194530 83 106 2.6 6.1 0.00 0.15 0.00 28 1010.0
20260509194029 83 138 2.6 6.1 0.00 0.15 0.00 27 1010.1
20260509193529 83 156 2.6 5.2 0.00 0.15 0.00 28 1010.2
20260509193029 83 140 2.6 5.2 0.00 0.15 0.00 29 1010.2
20260509192529 82 115 1.7 3.5 0.00 0.15 0.00 26 1010.2
20260509192029 82 94 3.5 7.0 0.00 0.15 0.00 25 1010.2
20260509191529 82 95 3.5 7.8 0.00 0.15 0.00 28 1010.2
20260509191029 82 172 0.9 4.3 0.00 0.15 0.00 27 1010.3
20260509190529 82 127 1.7 3.5 0.00 0.15 0.00 28 1010.2
20260509190029 82 133 2.6 7.0 0.00 0.15 0.00 29 1010.2
20260509185529 81 116 1.7 4.3 0.00 0.15 0.00 31 1010.2
20260509185029 81 105 2.6 6.1 0.00 0.15 0.00 31 1010.3
20260509184529 82 115 3.5 6.1 0.00 0.15 0.00 32 1010.4
20260509184029 82 70 1.7 4.3 0.00 0.15 0.00 30 1010.4
20260509183529 82 105 1.7 5.2 0.00 0.15 0.00 34 1010.4
20260509183029 82 61 1.7 5.2 0.00 0.15 0.00 34 1010.4
20260509182529 81 62 0.9 2.6 0.00 0.15 0.00 30 1010.4
20260509182029 81 98 1.7 4.3 0.00 0.15 0.00 28 1010.6
20260509181529 81 108 2.6 5.2 0.00 0.15 0.00 34 1010.8
20260509181029 80 182 1.7 3.5 0.00 0.15 0.00 45 1010.8
20260509180529 80 67 1.7 4.3 0.00 0.15 0.00 47 1010.9
20260509180029 80 86 2.6 6.1 0.00 0.15 0.00 42 1010.9
20260509175529 80 106 1.7 5.2 0.00 0.15 0.00 42 1010.9
20260509175029 79 55 2.6 5.2 0.00 0.15 0.00 54 1010.9
20260509174529 79 106 0.9 3.5 0.00 0.15 0.00 51 1011.0
20260509174029 78 0 1.7 5.2 0.00 0.15 0.00 53 1011.2
20260509173529 78 234 0.9 2.6 0.00 0.15 0.00 61 1011.2
20260509173029 78 262 1.7 3.5 0.00 0.15 0.00 60 1011.4
20260509172529 77 324 0.9 3.5 0.00 0.15 0.00 59 1011.5
20260509172029 77 334 2.6 6.1 0.00 0.15 0.00 64 1011.5
20260509171529 77 320 1.7 3.5 0.00 0.15 0.00 64 1011.6
20260509171029 77 340 1.7 3.5 0.00 0.15 0.00 66 1011.6
20260509170529 77 345 0.9 4.3 0.00 0.15 0.00 66 1011.7
20260509170029 76 309 0.9 3.5 0.00 0.15 0.00 68 1011.6
20260509165531 76 358 0.9 3.5 0.00 0.15 0.00 66 1011.5
20260509165029 75 358 0.9 2.6 0.00 0.15 0.00 69 1011.5
20260509164529 74 331 0.9 4.3 0.00 0.15 0.00 68 1011.5